Wind_Speed
42 41 41 35 33 31 27 21 21 23 25 27 28 28 29 31 30 31 32 37 42 47 33 26 12 9 8 8 11 6 4 18 24 14 2 12 34 39 41 53 60 64 60 56 52 55 56 55 57 52 49 49 43 45
40 40 35 33 32 30 25 21 21 22 24 26 27 27 27 27 29 29 30 37 43 42 30 23 20 16 16 14 8 14 14 13 32 19 5 22 30 37 39 46 51 54 56 58 56 55 54 53 57 55 45 47 50 46
39 41 31 32 30 28 22 20 21 21 23 26 27 27 27 27 27 27 28 35 40 41 26 22 22 17 15 10 8 20 7 28 22 9 20 10 24 29 41 44 53 51 57 56 50 50 52 46 57 58 48 46 47 48
39 37 30 32 28 25 20 18 20 22 23 24 26 26 26 25 25 24 25 32 36 40 23 16 15 14 11 15 17 16 11 21 15 6 11 21 27 34 40 46 48 53 58 55 54 51 47 54 57 48 54 47 47 49
38 31 31 29 27 22 20 17 20 22 23 23 24 25 25 23 22 20 21 28 35 36 31 13 8 10 9 9 10 9 1 11 25 8 2 10 14 33 36 39 47 50 55 54 52 50 46 52 59 57 53 48 52 53
36 26 29 28 24 20 18 16 19 21 23 23 24 23 22 21 19 18 17 22 30 34 35 27 13 6 5 7 13 8 9 16 23 25 17 14 16 21 32 34 40 48 54 56 51 47 49 48 48 55 46 48 52 53
25 28 28 25 19 20 15 13 17 22 22 23 23 22 20 19 16 17 14 18 23 29 31 32 28 14 8 7 12 16 16 14 19 21 26 15 7 21 27 32 35 37 44 51 51 47 45 49 39 61 39 50 50 56
23 27 25 22 20 20 12 11 18 19 21 23 22 21 19 16 14 14 15 14 19 23 27 27 29 23 16 12 16 13 10 9 14 16 21 16 17 20 25 29 30 31 35 42 51 47 41 46 53 51 56 49 56 57
25 25 22 20 21 13 7 15 17 19 22 23 22 20 18 15 12 13 13 12 13 18 22 24 24 25 22 13 15 15 11 10 6 8 14 17 17 23 24 29 29 26 25 37 42 48 44 46 50 55 49 49 51 54
24 22 19 20 13 4 12 14 19 21 22 23 22 20 17 13 11 11 12 14 14 14 18 20 21 20 22 24 17 9 10 7 7 7 7 10 10 15 19 21 23 30 31 30 41 39 43 45 51 51 59 59 44 58
20 19 20 10 5 11 13 17 19 22 22 22 23 19 13 10 9 8 10 14 17 13 13 14 16 17 16 19 21 20 16 6 3 3 2 3 8 9 10 17 26 24 26 26 30 50 45 44 52 51 56 56 60 47
17 15 6 5 8 12 16 18 20 21 20 20 18 15 6 9 10 8 8 16 15 12 13 9 11 13 13 14 15 15 15 15 14 13 9 1 5 8 13 8 9 11 15 21 26 26 35 40 51 56 57 54 63 62
11 2 3 6 10 13 15 17 19 17 17 21 14 5 14 14 8 8 13 12 13 16 16 14 6 9 10 8 11 12 11 11 11 12 12 9 3 5 11 13 16 14 1 1 11 22 26 28 48 53 50 56 56 65
2 2 4 8 11 12 14 19 14 17 14 13 9 9 13 9 10 11 11 13 13 12 8 6 6 7 7 5 4 12 12 12 10 9 8 7 7 5 4 8 10 11 10 9 11 8 14 23 27 38 40 45 46 57
1 2 6 9 9 11 15 15 14 14 12 16 16 16 15 15 14 14 13 12 10 10 12 5 4 6 11 6 4 11 9 10 11 11 8 6 5 3 2 1 3 6 6 7 12 18 20 13 19 24 34 37 41 40
1 4 7 6 7 11 14 14 19 8 16 18 17 17 15 14 13 13 12 11 10 10 6 6 6 5 12 6 10 7 7 8 8 10 10 6 3 6 3 2 3 2 3 5 9 10 14 21 26 27 24 32 31 37
2 5 5 5 7 11 13 15 13 12 12 14 15 16 15 15 15 13 10 10 11 7 4 5 7 10 10 10 7 5 4 7 8 9 8 10 11 7 6 4 5 5 5 8 9 10 12 14 16 18 30 35 35 37
4 4 5 7 9 12 13 14 15 15 14 14 12 11 11 11 12 13 13 10 7 4 6 6 7 6 6 6 7 8 10 11 11 10 9 12 16 16 16 15 11 10 9 10 12 13 15 15 17 20 22 24 29 38
4 6 7 9 11 12 13 14 16 17 15 15 14 13 13 13 12 13 14 14 10 8 7 9 12 14 14 12 10 10 11 13 14 14 14 13 15 16 15 15 16 17 19 17 16 17 20 20 21 23 24 26 28 30
6 6 8 12 14 15 16 17 17 19 18 16 15 14 14 15 14 13 15 14 13 12 11 12 13 15 15 15 15 13 12 12 13 15 17 18 19 19 19 18 18 19 20 21 21 20 19 21 21 21 23 27 31 32
7 9 11 14 15 16 17 16 18 20 17 19 18 17 18 16 19 15 15 17 18 17 16 16 15 16 16 15 13 17 20 20 19 20 19 20 23 26 26 25 26 27 27 28 28 29 31 31 31 30 27 28 30 32
9 11 13 14 15 19 18 19 18 19 23 24 19 17 22 27 22 18 18 18 19 19 22 23 23 23 22 21 20 17 19 20 19 21 25 29 29 32 36 37 35 35 35 36 37 38 40 42 44 45 45 43 39 39
13 15 16 17 18 18 23 19 11 15 14 16 18 17 22 20 19 26 18 14 16 19 22 25 22 15 17 13 21 26 21 24 29 31 31 32 32 33 36 38 36 37 39 41 44 46 48 49 51 52 53 55 55 52
12 13 16 18 21 21 19 22 18 20 22 15 15 13 17 15 13 11 21 18 17 17 15 11 10 13 14 33 28 25 25 29 29 31 36 42 40 36 34 32 31 32 33 34 36 38 41 44 47 50 52 54 57 57
12 8 7 13 16 14 17 19 20 21 21 14 9 16 18 17 15 16 17 14 7 9 13 16 18 31 28 25 25 27 29 34 35 31 30 31 33 33 31 31 30 30 30 31 32 33 32 31 32 34 36 41 44 46
17 9 12 18 20 16 18 20 17 17 14 15 16 16 18 20 21 20 19 15 12 11 12 15 20 22 24 26 27 25 23 20 19 19 19 21 22 21 20 21 21 22 24 23 22 25 26 25 24 24 25 28 30 33
13 11 16 15 21 20 18 15 13 11 14 14 13 16 19 17 19 17 16 16 15 14 12 13 16 17 17 17 17 18 18 18 17 16 15 15 14 13 14 16 17 16 15 15 17 17 17 16 16 18 19 21 23 25
17 20 23 25 20 12 12 11 10 10 14 15 12 14 19 15 14 14 15 16 16 16 16 17 20 21 23 23 23 22 22 23 23 22 22 21 19 18 16 16 15 15 15 14 14 15 15 14 14 15 15 16 17 18
16 23 25 22 14 9 9 8 10 13 14 13 16 17 16 15 15 16 17 19 20 19 19 18 19 20 21 23 25 26 26 27 27 26 26 24 23 22 21 20 19 18 17 17 16 15 13 13 13 14 14 14 14 14
21 27 26 25 18 14 14 14 16 16 16 17 18 18 19 20 21 21 22 23 23 22 22 25 26 26 26 25 24 24 24 24 24 26 27 27 27 27 27 26 24 22 21 20 20 20 19 19 17 17 16 15 15 14
22 23 27 27 22 20 19 20 21 21 21 21 19 21 24 25 25 25 25 24 24 26 27 27 27 26 26 26 28 28 29 30 31 30 27 25 26 28 29 29 29 30 30 30 29 27 24 23 22 22 22 22 20 18
22 23 25 25 25 25 27 28 25 23 23 24 24 24 24 24 24 24 24 23 24 26 26 26 26 26 25 25 27 27 27 27 28 28 29 31 30 28 26 25 25 25 26 27 28 29 30 31 31 30 29 28 27 25
20 20 22 24 24 25 26 26 25 25 25 25 24 24 24 25 24 23 23 24 25 26 26 26 25 25 26 26 26 26 27 28 27 26 26 26 28 30 31 30 30 31 30 29 28 28 28 27 26 26 26 27 28 29
Wind_Direction
318 317 324 335 327 327 325 320 328 329 335 340 339 337 335 340 345 345 345 358 360 3 3 1 3 23 39 66 77 52 334 26 27 41 230 208 183 188 198 200 201 204 207 202 203 209 210 204 203 198 205 207 202 203
315 317 325 329 326 326 320 319 324 325 335 340 341 341 340 341 345 349 349 359 5 12 17 30 48 57 72 78 83 72 65 29 37 60 207 136 167 174 192 196 198 202 207 203 208 209 206 204 202 198 201 206 198 199
317 311 325 324 324 324 317 318 323 324 331 338 340 341 341 344 348 351 358 7 10 19 32 48 53 69 68 66 67 25 77 47 67 119 147 142 170 173 181 194 199 200 205 205 205 208 207 201 202 202 200 201 202 199
314 307 331 322 322 323 312 315 324 325 330 335 338 338 340 343 349 355 4 11 14 24 31 49 53 43 56 35 17 17 55 55 65 65 151 125 173 180 186 194 200 202 206 207 209 213 210 201 201 206 197 196 200 199
306 312 328 320 321 319 314 312 319 325 327 334 336 337 338 340 346 355 5 11 15 19 35 37 40 33 19 21 24 13 348 28 38 65 87 177 182 182 187 193 202 205 210 211 214 216 214 206 202 204 197 196 198 201
302 325 322 323 321 317 310 308 314 326 327 334 335 336 337 336 341 350 360 5 14 15 20 35 39 20 24 39 41 49 354 352 5 40 80 187 181 179 188 190 197 205 213 215 217 220 220 211 207 199 199 194 201 203
311 324 326 323 319 318 304 302 321 322 328 332 333 334 336 333 336 347 345 359 10 12 16 24 33 40 25 40 77 71 50 7 353 28 83 87 187 184 196 198 201 203 209 213 216 219 220 218 199 204 196 196 198 204
324 322 324 321 315 317 307 311 311 325 329 330 331 331 334 330 330 339 345 352 5 9 10 18 27 39 52 58 91 83 62 24 15 51 54 35 82 185 189 197 205 209 209 215 216 220 225 217 208 207 203 196 194 201
323 320 321 319 315 310 310 312 325 330 329 331 329 327 329 326 328 336 346 348 358 5 6 11 25 34 47 71 83 88 79 94 50 36 58 57 71 99 178 198 192 195 201 214 218 220 229 223 218 217 218 210 184 195
317 316 319 320 311 327 324 331 332 332 330 330 326 322 321 320 329 331 342 345 352 359 359 5 17 31 43 52 59 98 91 70 82 64 48 67 60 14 79 164 208 202 203 205 214 217 224 227 217 225 228 230 200 186
314 319 320 329 1 337 336 334 332 331 334 335 331 324 313 318 331 329 334 342 341 347 351 353 8 18 34 48 55 52 56 55 31 15 101 41 105 115 55 92 179 202 213 219 223 218 227 227 224 222 230 233 218 191
315 320 6 6 342 338 337 336 336 336 341 336 329 329 319 336 330 326 332 344 345 347 342 332 350 6 15 32 43 50 53 58 54 51 41 5 161 147 133 124 81 126 177 216 233 237 230 227 228 228 228 233 228 214
317 55 15 348 340 345 343 340 338 344 349 353 358 41 17 358 345 298 317 341 340 325 320 320 334 352 1 6 28 31 29 30 26 34 45 54 105 158 154 156 160 143 22 315 166 204 223 226 222 227 231 232 232 237
135 10 355 344 353 347 340 349 355 357 4 5 2 317 348 316 336 337 301 299 319 332 336 8 348 343 336 329 358 10 7 12 13 10 33 38 64 68 131 150 159 166 172 217 215 213 195 204 221 228 237 240 245 238
186 9 347 353 350 346 351 357 3 360 6 357 356 351 351 344 340 334 325 322 301 305 331 351 345 345 352 297 289 333 342 346 345 346 9 10 7 19 52 94 159 185 185 186 211 207 206 226 222 225 234 233 231 239
85 352 342 337 342 350 3 4 9 338 351 350 349 346 345 353 347 350 354 357 354 294 269 275 340 321 326 246 323 318 323 322 326 322 323 335 338 318 330 332 307 287 222 219 218 219 228 229 223 224 241 235 231 234
357 335 323 324 332 350 355 0 6 359 353 350 353 352 351 346 345 344 345 344 352 23 148 247 252 280 283 292 303 303 315 317 311 311 319 320 318 316 314 325 301 278 267 263 261 246 232 229 231 233 235 237 245 245
340 322 314 319 330 340 345 345 348 349 350 349 349 345 343 341 340 340 339 336 337 319 297 271 264 269 275 285 287 292 294 295 292 287 289 296 300 306 307 303 298 289 276 262 259 258 256 253 252 245 241 237 235 239
327 318 322 324 323 329 329 329 337 340 342 340 338 337 336 329 327 323 317 316 306 294 288 285 283 280 280 280 277 274 275 276 280 283 286 285 283 286 284 284 287 287 285 279 270 268 269 267 256 250 251 253 249 245
318 318 320 325 324 326 328 325 326 328 328 327 325 321 317 317 319 311 305 300 294 287 278 271 276 277 279 284 287 287 285 284 285 289 293 290 286 282 279 276 272 272 276 279 278 273 269 267 266 269 268 261 254 250
316 320 316 322 329 331 324 313 313 319 312 308 315 307 305 304 301 301 292 289 289 289 287 283 283 280 282 285 287 291 294 293 295 298 299 295 292 286 279 275 272 269 270 269 268 267 269 268 268 271 275 276 270 269
319 311 316 324 328 336 342 326 317 321 314 300 305 306 311 300 300 299 298 294 293 286 284 285 283 279 277 274 275 282 290 294 297 293 291 292 288 282 275 272 271 272 273 273 275 277 274 271 271 271 272 273 276 266
327 326 332 332 330 331 339 347 339 340 330 312 337 307 310 319 308 314 299 308 313 317 302 289 287 279 261 247 334 331 312 300 297 296 291 289 285 289 291 288 287 287 286 284 281 278 277 277 274 271 271 271 273 272
340 334 327 320 314 315 325 348 341 332 329 316 316 304 293 312 305 298 329 333 335 313 294 294 285 277 295 325 323 306 299 300 291 286 287 295 294 291 289 289 288 287 287 285 283 282 280 278 276 274 273 271 270 267
346 352 25 14 359 358 356 346 345 341 336 337 337 335 350 360 343 335 334 338 326 306 329 294 310 319 322 321 316 310 302 294 297 301 295 293 290 288 287 286 287 288 287 287 289 288 286 283 279 275 271 268 265 265
341 276 308 340 346 333 332 341 337 336 337 13 25 21 30 27 23 19 16 12 1 347 331 317 311 314 318 321 322 322 322 319 317 314 312 306 303 304 303 300 299 297 295 296 299 299 296 292 286 281 276 271 268 265
2 337 352 354 354 342 335 332 336 4 30 25 31 32 26 16 11 17 21 20 18 17 6 351 349 351 354 358 360 2 5 4 358 350 339 326 327 327 323 323 322 318 314 310 314 313 310 311 309 302 294 284 278 274
23 22 7 354 356 353 336 357 29 24 7 15 23 14 9 12 16 20 30 33 34 30 23 19 21 24 25 24 23 22 21 20 20 21 20 18 17 12 5 359 353 347 343 334 324 318 323 323 317 316 317 312 305 297
37 17 9 15 13 17 38 34 13 6 14 25 25 19 21 27 36 38 41 43 43 41 35 31 33 35 36 37 38 36 33 32 31 29 29 26 23 21 18 17 16 14 11 9 7 3 354 343 335 331 329 327 324 320
25 16 25 41 49 43 33 28 35 45 49 39 34 48 54 53 52 49 47 47 48 51 50 48 47 45 43 41 39 37 34 33 35 35 35 36 38 38 38 36 33 29 26 22 22 24 25 22 19 13 5 355 347 341
27 34 43 48 47 50 55 54 49 47 51 55 50 53 56 57 58 56 52 50 49 50 49 47 45 44 44 43 41 40 39 40 42 41 38 36 36 37 40 41 42 43 44 45 43 40 38 34 31 28 27 27 25 22
39 47 54 56 56 59 61 61 58 58 58 58 57 54 52 50 49 47 46 41 39 39 39 39 38 36 34 34 35 36 35 35 36 37 38 40 40 39 39 38 37 38 38 39 42 43 44 44 43 41 40 39 38 37
45 52 62 63 61 61 61 63 65 64 61 59 56 52 49 48 45 41 37 35 34 34 35 35 35 34 33 34 36 37 37 36 36 36 37 37 36 37 38 39 40 42 41 40 39 39 39 38 37 36 35 36 38 41
Height
5785 5778 5772 5765 5760 5753 5747 5743 5738 5734 5729 5724 5718 5712 5706 5700 5692 5686 5679 5671 5660 5645 5633 5624 5619 5616 5615 5615 5616 5618 5616 5613 5609 5603 5600 5600 5606 5617 5629 5639 5651 5668 5680 5694 5703 5710 5721 5733 5743 5754 5760 5770 5781 5791
5778 5772 5765 5760 5754 5748 5743 5739 5735 5731 5727 5721 5715 5709 5703 5697 5690 5684 5678 5669 5659 5646 5636 5627 5623 5621 5621 5622 5622 5620 5618 5614 5607 5604 5600 5600 5606 5615 5626 5637 5649 5663 5673 5688 5696 5705 5715 5728 5739 5750 5760 5767 5775 5784
5771 5765 5758 5754 5748 5743 5739 5735 5731 5728 5723 5719 5713 5707 5701 5695 5689 5683 5676 5669 5661 5649 5640 5635 5630 5629 5628 5627 5626 5623 5620 5615 5609 5607 5604 5606 5611 5618 5624 5636 5647 5658 5671 5681 5692 5700 5711 5724 5734 5744 5756 5763 5771 5777
5764 5758 5752 5748 5743 5738 5734 5731 5728 5725 5720 5715 5711 5705 5699 5693 5688 5682 5676 5670 5663 5653 5645 5642 5637 5634 5632 5631 5629 5627 5625 5622 5617 5614 5612 5609 5612 5621 5628 5636 5648 5657 5669 5679 5689 5698 5707 5717 5727 5738 5749 5758 5766 5775
5757 5751 5747 5742 5738 5734 5730 5728 5724 5720 5717 5712 5708 5703 5697 5691 5686 5681 5676 5671 5664 5658 5650 5644 5641 5637 5635 5633 5631 5630 5626 5625 5623 5622 5620 5620 5622 5625 5632 5641 5649 5656 5665 5677 5687 5695 5702 5711 5722 5733 5743 5752 5760 5767
5750 5745 5741 5737 5732 5729 5725 5723 5721 5717 5713 5709 5705 5700 5695 5690 5685 5681 5676 5672 5666 5659 5653 5647 5642 5640 5638 5637 5634 5632 5630 5629 5629 5626 5623 5625 5627 5631 5634 5640 5646 5655 5664 5676 5684 5692 5700 5708 5717 5727 5737 5745 5756 5764
5742 5740 5735 5731 5727 5724 5721 5719 5718 5714 5710 5706 5701 5696 5692 5688 5684 5680 5677 5672 5667 5663 5657 5650 5645 5641 5637 5636 5633 5634 5635 5635 5634 5633 5630 5630 5630 5631 5636 5640 5646 5654 5662 5672 5681 5687 5694 5704 5712 5721 5726 5738 5749 5758
5737 5735 5730 5726 5723 5720 5717 5716 5713 5710 5706 5702 5697 5693 5689 5686 5682 5678 5675 5672 5668 5665 5660 5654 5649 5642 5639 5636 5635 5636 5637 5637 5637 5637 5636 5634 5630 5630 5634 5639 5647 5654 5661 5669 5677 5685 5690 5699 5706 5713 5719 5728 5739 5750
5732 5729 5725 5721 5718 5716 5715 5713 5710 5707 5703 5699 5694 5690 5687 5684 5680 5677 5674 5671 5668 5667 5662 5657 5653 5648 5642 5640 5638 5638 5639 5638 5639 5639 5638 5637 5636 5634 5635 5640 5646 5652 5659 5666 5672 5680 5685 5692 5700 5704 5710 5717 5724 5736
5727 5724 5719 5716 5714 5714 5713 5710 5707 5703 5699 5695 5690 5687 5683 5680 5677 5675 5673 5671 5668 5666 5663 5660 5655 5652 5649 5643 5642 5640 5639 5639 5638 5640 5639 5638 5640 5638 5639 5640 5643 5650 5656 5661 5668 5674 5679 5685 5693 5696 5700 5706 5712 5722
5722 5718 5715 5713 5713 5713 5710 5707 5704 5700 5696 5692 5687 5683 5680 5678 5676 5673 5671 5670 5667 5666 5663 5661 5657 5655 5652 5649 5645 5643 5642 5640 5639 5639 5641 5640 5641 5641 5640 5642 5643 5648 5653 5657 5662 5668 5672 5678 5685 5691 5692 5699 5707 5709
5716 5714 5712 5713 5713 5711 5708 5705 5701 5697 5693 5688 5684 5679 5678 5677 5675 5673 5671 5669 5667 5664 5662 5660 5659 5656 5654 5651 5649 5648 5646 5645 5643 5642 5640 5639 5640 5642 5643 5644 5647 5651 5653 5654 5658 5663 5668 5673 5676 5683 5690 5692 5700 5704
5712 5712 5713 5712 5711 5708 5707 5703 5698 5693 5690 5686 5681 5680 5678 5676 5673 5671 5669 5665 5666 5664 5661 5659 5658 5657 5655 5653 5651 5650 5648 5647 5646 5646 5645 5644 5642 5641 5644 5644 5645 5647 5651 5653 5655 5658 5662 5666 5670 5676 5682 5688 5693 5698
5711 5712 5711 5711 5709 5708 5705 5701 5695 5691 5688 5685 5683 5679 5677 5675 5672 5672 5669 5666 5664 5661 5659 5658 5657 5656 5655 5654 5652 5651 5649 5647 5647 5647 5648 5647 5646 5645 5645 5645 5646 5647 5646 5650 5652 5654 5658 5662 5666 5670 5674 5677 5681 5689
5711 5710 5710 5708 5708 5707 5703 5698 5694 5691 5687 5684 5682 5678 5675 5672 5671 5670 5667 5665 5662 5659 5657 5656 5655 5655 5654 5653 5653 5651 5649 5647 5646 5645 5646 5645 5645 5646 5647 5646 5647 5648 5647 5647 5649 5651 5653 5657 5660 5665 5668 5670 5673 5678
5709 5709 5708 5707 5707 5704 5700 5697 5693 5690 5687 5684 5681 5678 5675 5673 5670 5667 5665 5662 5659 5656 5655 5654 5652 5653 5653 5653 5651 5649 5648 5646 5645 5643 5642 5643 5644 5642 5644 5645 5645 5645 5646 5647 5648 5648 5648 5650 5653 5656 5659 5660 5665 5671
5708 5707 5707 5706 5704 5701 5698 5695 5692 5690 5687 5684 5680 5677 5675 5671 5668 5665 5662 5660 5658 5656 5654 5655 5654 5653 5651 5650 5649 5648 5647 5646 5644 5642 5641 5638 5637 5639 5640 5641 5640 5641 5642 5643 5644 5646 5647 5647 5648 5648 5650 5651 5656 5658
5707 5706 5705 5704 5701 5698 5696 5693 5691 5688 5684 5681 5678 5675 5672 5669 5668 5665 5661 5659 5657 5656 5656 5654 5652 5649 5648 5647 5646 5646 5644 5642 5641 5640 5640 5638 5635 5635 5634 5634 5635 5636 5637 5637 5636 5637 5637 5638 5641 5644 5645 5647 5648 5650
5707 5705 5703 5701 5699 5696 5693 5691 5688 5685 5681 5677 5674 5672 5669 5667 5665 5662 5659 5657 5654 5653 5652 5651 5650 5648 5645 5644 5643 5642 5640 5638 5637 5635 5634 5634 5632 5631 5630 5629 5627 5626 5626 5628 5629 5630 5630 5631 5633 5635 5635 5637 5639 5641
5706 5704 5702 5699 5697 5694 5691 5689 5685 5682 5678 5675 5671 5669 5667 5665 5663 5660 5656 5655 5652 5650 5648 5646 5645 5644 5643 5641 5640 5639 5637 5635 5633 5632 5631 5630 5628 5626 5625 5623 5622 5621 5620 5620 5620 5621 5622 5622 5622 5624 5625 5626 5627 5628
5704 5702 5700 5697 5694 5692 5689 5685 5682 5678 5674 5672 5668 5665 5663 5661 5658 5657 5653 5651 5650 5649 5647 5645 5643 5642 5640 5639 5637 5636 5634 5632 5630 5628 5626 5624 5623 5621 5620 5618 5616 5614 5614 5613 5611 5609 5609 5611 5612 5613 5614 5615 5616 5615
5702 5699 5697 5693 5690 5688 5685 5682 5678 5675 5672 5667 5664 5661 5659 5655 5652 5651 5649 5647 5645 5644 5642 5640 5638 5637 5635 5633 5630 5629 5627 5626 5624 5622 5619 5617 5614 5611 5609 5608 5606 5605 5603 5602 5601 5599 5597 5595 5595 5595 5596 5598 5600 5601
5700 5698 5695 5692 5689 5686 5684 5678 5675 5673 5669 5666 5662 5660 5657 5652 5648 5646 5643 5642 5640 5637 5634 5632 5631 5629 5626 5624 5623 5622 5620 5618 5616 5613 5610 5607 5604 5601 5599 5596 5593 5591 5589 5587 5585 5584 5583 5581 5579 5579 5578 5577 5578 5581
5697 5695 5692 5689 5685 5682 5680 5677 5673 5669 5665 5661 5658 5656 5653 5649 5646 5643 5639 5638 5636 5632 5629 5627 5627 5625 5622 5619 5616 5613 5611 5609 5605 5602 5599 5594 5591 5588 5586 5582 5580 5577 5575 5573 5570 5568 5566 5564 5562 5561 5560 5559 5560 5561
5696 5693 5689 5685 5682 5679 5677 5673 5668 5665 5661 5658 5655 5652 5649 5647 5644 5640 5637 5634 5632 5631 5629 5626 5623 5620 5616 5612 5608 5603 5600 5597 5594 5590 5586 5581 5578 5576 5575 5572 5569 5567 5564 5562 5559 5555 5552 5550 5547 5545 5543 5542 5542 5543
5694 5691 5690 5686 5682 5679 5676 5671 5667 5664 5660 5656 5655 5652 5650 5646 5642 5638 5635 5632 5630 5628 5627 5624 5620 5616 5612 5607 5602 5597 5593 5589 5585 5581 5577 5572 5569 5566 5564 5562 5559 5557 5554 5551 5548 5544 5541 5538 5535 5533 5531 5530 5529 5528
5695 5693 5689 5686 5682 5678 5673 5669 5665 5664 5662 5659 5656 5654 5650 5647 5644 5641 5637 5633 5630 5628 5624 5620 5617 5613 5609 5605 5600 5595 5590 5586 5582 5577 5572 5568 5565 5562 5559 5556 5553 5549 5546 5544 5541 5537 5534 5531 5528 5525 5523 5521 5520 5518
5697 5694 5689 5685 5679 5675 5671 5669 5668 5666 5664 5660 5658 5655 5652 5648 5645 5642 5638 5635 5631 5628 5624 5621 5616 5612 5608 5604 5599 5595 5590 5585 5580 5576 5572 5567 5563 5560 5556 5553 5549 5546 5542 5539 5536 5533 5530 5527 5523 5521 5518 5515 5513 5511
5696 5693 5688 5683 5679 5675 5674 5673 5671 5668 5664 5662 5659 5656 5652 5649 5646 5643 5640 5637 5634 5630 5626 5623 5619 5615 5611 5607 5602 5597 5592 5587 5583 5578 5573 5569 5564 5560 5556 5553 5549 5545 5542 5538 5535 5531 5528 5524 5521 5518 5515 5513 5510 5508
5698 5694 5688 5683 5681 5679 5677 5675 5671 5668 5666 5663 5661 5658 5655 5653 5650 5646 5643 5640 5638 5636 5632 5627 5623 5619 5615 5610 5606 5602 5597 5592 5588 5583 5579 5575 5570 5566 5561 5556 5552 5548 5544 5540 5536 5532 5528 5525 5521 5518 5514 5511 5508 5505
5698 5694 5689 5686 5685 5682 5680 5677 5674 5671 5669 5667 5665 5663 5660 5657 5654 5651 5648 5645 5643 5639 5635 5631 5627 5623 5620 5616 5612 5607 5603 5598 5593 5589 5584 5580 5575 5571 5566 5562 5558 5553 5549 5544 5540 5536 5531 5528 5524 5521 5517 5513 5509 5505
5700 5697 5694 5691 5690 5687 5684 5680 5678 5677 5675 5673 5671 5669 5666 5663 5659 5657 5654 5651 5647 5642 5638 5635 5631 5628 5624 5619 5615 5611 5607 5603 5598 5594 5590 5586 5581 5577 5572 5568 5564 5559 5555 5551 5547 5543 5538 5534 5530 5526 5522 5518 5514 5509
5703 5701 5699 5697 5695 5693 5690 5688 5686 5684 5682 5680 5678 5675 5672 5668 5664 5661 5658 5654 5651 5647 5643 5639 5636 5632 5628 5624 5620 5616 5612 5608 5604 5600 5595 5591 5587 5583 5578 5574 5569 5565 5560 5556 5552 5548 5544 5540 5536 5532 5528 5525 5521 5516